Regional Weather Roundup
Issued by NWS

Home | Current Version | Previous Version | Text Only | Print | Product List | Glossary Off
Versions: 1 2 3 4 5 6 7 8 9 10 11 12 13 14 15 16 17 18 19 20 21 22 23 24 25 26 27 28 29 30 31 32 33 34 35 36 37 38 39 40 41 42 43 44 45 46 47 48 49 50

000
ASUS43 KBIS 252010
RWRND

NORTH DAKOTA REGIONAL WEATHER ROUNDUP
NATIONAL WEATHER SERVICE BISMARCK ND
300 PM CDT FRI JUL 25 2014

NOTE: "FAIR" INDICATES FEW OR NO CLOUDS BELOW 12,000 FEET WITH NO
SIGNIFICANT WEATHER AND/OR OBSTRUCTIONS TO VISIBILITY.


NDZ001>003-009>011-017-252100-
NORTHWEST NORTH DAKOTA

CITY           SKY/WX    TMP DP  RH WIND       PRES   REMARKS
WILLISTON      SUNNY     81  41  24 SW16G25   29.79F
MINOT          SUNNY     76  48  37 W14       29.80F
MINOT AFB      SUNNY     75  53  45 W15       29.79F
$$

NDZ018>021-031>035-040>046-252100-
SOUTHWEST NORTH DAKOTA

CITY           SKY/WX    TMP DP  RH WIND       PRES   REMARKS
BISMARCK       SUNNY     82  46  28 NW13G18   29.84F
DICKINSON      SUNNY     78  41  26 W10       29.86F
GARRISON         N/A     75  50  41 W10       29.84R
HETTINGER ARPT SUNNY     78  44  29 W7        29.90F
$$

NDZ004>008-012>016-024-026-027-054-252100-
NORTHEAST NORTH DAKOTA

CITY           SKY/WX    TMP DP  RH WIND       PRES   REMARKS
GRAND FORKS    PTSUNNY   79  67  66 NW9       29.72F
GRND FRKS AFB  SUNNY     81  63  54 NW15      29.75S
DEVILS LAKE    SUNNY     75  52  43 NW15G22   29.78S
$$

NDZ022-023-025-028>030-036>039-047>053-252100-
SOUTHEAST NORTH DAKOTA

CITY           SKY/WX    TMP DP  RH WIND       PRES   REMARKS
FARGO          PTSUNNY   78  67  68 W6        29.75S
JAMESTOWN      SUNNY     79  49  34 N16       29.81S
$$



USA.gov is the U.S. government's official web portal to all federal, state and local government web resources and services.